Nantucket, MA

11:15 PM EDT on September 27, 2016 (GMT -0400)
Nantucket Memorial

Weather History for KACK - November, 2012

Change the Weather History Date:

Wednesday, November 7, 2012

  Actual Average Record
Temperature  
Mean Temperature 45 °F -  
Max Temperature 48 °F 56 °F 68 °F (1971)
Min Temperature 42 °F 42 °F 33 °F (1949)
Degree Days  
Heating Degree Days 20    
Moisture  
Dew Point 40 °F    
Average Humidity 84    
Maximum Humidity 96    
Minimum Humidity 63    
Precipitation  
Precipitation 1.30 in - - ()
Sea Level Pressure  
Sea Level Pressure 29.67 in    
Wind  
Wind Speed 30 mph (NE)    
Max Wind Speed 48 mph    
Max Gust Speed 68 mph    
Visibility 5 miles    
Events Rain    
Averages and records for this station are not official NWS values.
T = Trace of Precipitation, MM = Missing Value Source: NWS Daily Summary

Daily Weather History Graph

Daily Weather History Graph

Search for Another Location

Airport or City:

Trip Planner

Search our weather history database for the weather conditions in past years. The results will help you decide how hot, cold, wet, or windy it might be!

Date:

Astronomy

Nov. 07, 2012 Rise Set
Actual Time 6:19 AM EST 4:28 PM EST
Civil Twilight 5:50 AM EST 4:57 PM EST
Nautical Twilight 5:17 AM EST 5:30 PM EST
Astronomical Twilight 4:44 AM EST 6:02 PM EST
Moon No Moon Rise 12:39 PM EST (11/7)
Length of Visible Light 11h 07m
Length of Day
10h 08m
Last Quarter, 43% of the Moon is Illuminated
Nov 7
Last Quarter
Nov 13
New
Nov 20
First Quarter
Nov 28
Full
Dec 6
Last Quarter

Hourly Weather History & Observations

Time (EST) Temp. Windchill Dew Point Humidity Pressure Visibility Wind Dir Wind Speed Gust Speed Precip Events Conditions
12:53 AM 44.1 °F 36.5 °F 32.0 °F 63% 30.06 in 10.0 mi NE 17.3 mph 25.3 mph N/A   Mostly Cloudy
1:53 AM 45.0 °F 37.9 °F 33.1 °F 63% 30.04 in 10.0 mi ENE 16.1 mph 27.6 mph N/A   Mostly Cloudy
2:53 AM 45.0 °F 37.1 °F 34.0 °F 65% 30.03 in 10.0 mi ENE 19.6 mph 28.8 mph N/A   Mostly Cloudy
3:53 AM 46.0 °F 38.5 °F 35.1 °F 66% 29.99 in 10.0 mi NE 19.6 mph 29.9 mph N/A   Overcast
4:24 AM 46.4 °F 37.9 °F 35.6 °F 66% 29.95 in 10.0 mi NE 25.3 mph 34.5 mph N/A   Mostly Cloudy
4:53 AM 46.0 °F 37.6 °F 36.0 °F 68% 29.96 in 10.0 mi NE 24.2 mph 38.0 mph N/A   Overcast
5:53 AM 46.9 °F - 37.9 °F 71% 29.91 in 10.0 mi NE 25.3 mph 41.4 mph N/A   Overcast
6:53 AM 46.9 °F - 39.9 °F 77% 29.87 in 10.0 mi NE 28.8 mph 43.7 mph N/A   Overcast
7:53 AM 48.0 °F - 42.1 °F 80% 29.83 in 10.0 mi NE 33.4 mph 51.8 mph N/A   Overcast
8:53 AM 48.0 °F - 42.1 °F 80% 29.81 in 10.0 mi NE 29.9 mph 50.6 mph N/A   Overcast
9:53 AM 46.9 °F - 43.0 °F 86% 29.80 in 5.0 mi NE 36.8 mph 50.6 mph 0.01 in Rain Light Rain
10:53 AM 46.9 °F - 43.0 °F 86% 29.75 in 8.0 mi NE 41.4 mph 51.8 mph 0.07 in Rain Light Rain
11:53 AM 46.0 °F 36.7 °F 42.1 °F 86% 29.75 in 4.0 mi NE 29.9 mph 49.5 mph 0.03 in Rain Rain
12:53 PM 45.0 °F 34.4 °F 41.0 °F 86% 29.72 in 3.0 mi NE 35.7 mph 52.9 mph 0.20 in Rain Heavy Rain
1:53 PM 45.0 °F 34.7 °F 42.1 °F 90% 29.68 in 3.0 mi NE 33.4 mph 49.5 mph 0.21 in Rain Rain
2:53 PM 44.1 °F 32.4 °F 41.0 °F 89% 29.66 in 5.0 mi NE 41.4 mph 55.2 mph 0.06 in Rain Light Rain
3:53 PM 43.0 °F 31.4 °F 39.9 °F 89% 29.66 in 2.0 mi NNE 38.0 mph 55.2 mph 0.13 in Rain Rain
4:48 PM 42.8 °F 30.0 °F 39.2 °F 87% 29.61 in 2.0 mi NNE 47.2 mph 59.8 mph 0.18 in Rain Light Rain
4:53 PM 43.0 °F 30.2 °F 39.9 °F 89% 29.61 in 2.0 mi NNE 48.3 mph 64.4 mph 0.18 in Rain Light Rain
5:53 PM 43.0 °F 31.1 °F 39.9 °F 89% 29.61 in 10.0 mi NNE 40.3 mph 62.1 mph 0.06 in   Overcast
6:53 PM 43.0 °F 31.2 °F 39.9 °F 89% 29.59 in 5.0 mi NNE 39.1 mph 54.1 mph 0.03 in Rain Light Rain
7:04 PM 42.8 °F 30.5 °F 39.2 °F 87% 29.59 in 5.0 mi NNE 42.6 mph 57.5 mph 0.00 in   Overcast
7:17 PM 42.8 °F 31.3 °F 41.0 °F 93% 29.59 in 4.0 mi NNE 36.8 mph 54.1 mph 0.00 in   Overcast
7:53 PM 44.1 °F 32.6 °F 41.0 °F 89% 29.57 in 3.0 mi NNE 40.3 mph 55.2 mph 0.03 in   Overcast
8:07 PM 44.6 °F 33.6 °F 42.8 °F 93% 29.56 in 2.5 mi NNE 38.0 mph 56.4 mph 0.01 in   Overcast
8:15 PM 44.6 °F 32.8 °F 42.8 °F 93% 29.55 in 3.0 mi NNE 44.9 mph 55.2 mph 0.01 in   Overcast
8:53 PM 45.0 °F 33.7 °F 42.1 °F 90% 29.54 in 3.0 mi NNE 41.4 mph 57.5 mph 0.04 in Rain Light Rain
9:06 PM 44.6 °F 33.8 °F 42.8 °F 93% 29.52 in 2.5 mi NNE 36.8 mph 59.8 mph 0.00 in   Overcast
9:22 PM 44.6 °F 33.5 °F 42.8 °F 93% 29.52 in 2.5 mi NNE 39.1 mph 56.4 mph 0.02 in   Overcast
9:42 PM 44.6 °F 34.1 °F 42.8 °F 93% 29.51 in 3.0 mi NNE 34.5 mph 57.5 mph 0.03 in   Overcast
9:53 PM 44.1 °F 32.4 °F 43.0 °F 96% 29.50 in 3.0 mi NNE 41.4 mph 57.5 mph 0.04 in   Overcast
10:12 PM 44.6 °F 33.3 °F 42.8 °F 93% 29.49 in 4.0 mi NNE 40.3 mph 59.8 mph N/A   Overcast
10:41 PM 46.4 °F 35.5 °F 44.6 °F 93% 29.47 in 3.0 mi NNE 43.7 mph 58.7 mph 0.01 in Rain Light Rain
10:53 PM 46.0 °F 35.2 °F 44.1 °F 93% 29.48 in 3.0 mi NNE 41.4 mph 59.8 mph 0.03 in Rain Light Rain
11:08 PM 46.4 °F 35.7 °F 44.6 °F 93% 29.48 in 2.0 mi NNE 41.4 mph 63.3 mph 0.08 in Rain Rain
11:35 PM - - - N/A% 29.45 in 5.0 mi NNE 41.4 mph 57.5 mph 0.17 in   Unknown
11:53 PM - - - N/A% 29.44 in 3.0 mi NNE 47.2 mph 57.5 mph 0.18 in   Unknown
11:57 PM - - - N/A% 29.43 in 2.5 mi NNE 41.4 mph 67.9 mph 0.00 in   Unknown